Olivia, MN

7:09 PM CDT on April 19, 2018 (GMT -0500)
Olivia Regional

Weather History for KOVL - October, 2012

Change the Weather History Date:

Sunday, October 28, 2012

  Actual Average (KRWF) Record (KRWF)
Temperature  
Mean Temperature 38 °F -  
Max Temperature 46 °F 53 °F 78 °F (1937)
Min Temperature 30 °F 32 °F 12 °F (1967)
Degree Days  
Heating Degree Days 27    
Moisture  
Dew Point 30 °F    
Average Humidity 74    
Maximum Humidity 87    
Minimum Humidity 57    
Precipitation  
Precipitation 0.00 in - - ()
Sea Level Pressure  
Sea Level Pressure 30.25 in    
Wind  
Wind Speed 7 mph (SSE)    
Max Wind Speed 14 mph    
Max Gust Speed 20 mph    
Visibility 10 miles    
Events      
Averages and records for this station are not official NWS values.
T = Trace of Precipitation, MM = Missing Value Source: NWS Daily Summary

Daily Weather History Graph

Daily Weather History Graph

Search for Another Location

Airport or City:

Astronomy

Oct. 28, 2012 Rise Set
Actual Time 7:53 AM CDT 6:13 PM CDT
Civil Twilight 7:23 AM CDT 6:43 PM CDT
Nautical Twilight 6:48 AM CDT 7:18 PM CDT
Astronomical Twilight 6:14 AM CDT 7:52 PM CDT
Moon 5:32 PM CDT (10/28) 6:46 AM CDT (10/28)
Length of Visible Light 11h 20m
Length of Day
10h 20m
Waxing Gibbous, 99% of the Moon is Illuminated
Oct 28
Waxing Gibbous
Oct 29
Full
Nov 6
Last Quarter
Nov 13
New
Nov 20
First Quarter

Hourly Weather History & Observations

Time (CDT) Temp. Windchill Dew Point Humidity Pressure Visibility Wind Dir Wind Speed Gust Speed Precip Events Conditions
12:11 AM 32.0 °F 27.5 °F 26.6 °F 80% 30.29 in 10.0 mi SSE 4.6 mph - N/A   Clear
1:11 AM 32.0 °F 27.5 °F 26.6 °F 80% 30.29 in 10.0 mi SSE 4.6 mph - N/A   Overcast
1:31 AM 32.0 °F 26.4 °F 28.4 °F 87% 30.29 in 10.0 mi SE 5.8 mph - N/A   Overcast
1:50 AM 32.0 °F 26.4 °F 28.4 °F 87% 30.29 in 10.0 mi SSE 5.8 mph - N/A   Overcast
2:11 AM 32.0 °F 27.5 °F 26.6 °F 80% 30.29 in 10.0 mi SSE 4.6 mph - N/A   Mostly Cloudy
2:31 AM 32.0 °F 27.5 °F 26.6 °F 80% 30.28 in 10.0 mi SE 4.6 mph - N/A   Overcast
2:51 AM 32.0 °F 26.4 °F 26.6 °F 80% 30.29 in 10.0 mi SSE 5.8 mph - N/A   Overcast
3:11 AM 32.0 °F 25.6 °F 26.6 °F 80% 30.28 in 10.0 mi SE 6.9 mph - N/A   Overcast
3:31 AM 32.0 °F 27.5 °F 26.6 °F 80% 30.28 in 10.0 mi SE 4.6 mph - N/A   Overcast
3:51 AM 30.2 °F 25.4 °F 26.6 °F 86% 30.27 in 10.0 mi SSE 4.6 mph - N/A   Scattered Clouds
4:11 AM 30.2 °F 25.4 °F 26.6 °F 86% 30.27 in 10.0 mi SSE 4.6 mph - N/A   Mostly Cloudy
4:31 AM 32.0 °F 26.4 °F 26.6 °F 80% 30.26 in 10.0 mi SSE 5.8 mph - N/A   Overcast
4:51 AM 32.0 °F 25.6 °F 28.4 °F 87% 30.26 in 10.0 mi SSE 6.9 mph - N/A   Overcast
5:11 AM 32.0 °F 25.6 °F 28.4 °F 87% 30.27 in 10.0 mi SSE 6.9 mph - N/A   Overcast
5:31 AM 32.0 °F 25.6 °F 28.4 °F 87% 30.27 in 10.0 mi SSE 6.9 mph - N/A   Overcast
5:51 AM 32.0 °F 25.6 °F 26.6 °F 80% 30.28 in 10.0 mi SSE 6.9 mph - N/A   Overcast
6:11 AM 32.0 °F 26.4 °F 28.4 °F 87% 30.27 in 10.0 mi SSE 5.8 mph - N/A   Overcast
6:31 AM 32.0 °F 25.6 °F 28.4 °F 87% 30.28 in 10.0 mi SSE 6.9 mph - N/A   Overcast
6:51 AM 33.8 °F 28.6 °F 30.2 °F 87% 30.28 in 10.0 mi SSE 5.8 mph - N/A   Overcast
7:11 AM 33.8 °F 27.7 °F 30.2 °F 87% 30.28 in 10.0 mi SSE 6.9 mph - N/A   Overcast
7:31 AM 33.8 °F 28.6 °F 30.2 °F 87% 30.28 in 10.0 mi SSE 5.8 mph - N/A   Overcast
7:51 AM 33.8 °F 28.6 °F 30.2 °F 87% 30.28 in 10.0 mi SSE 5.8 mph - N/A   Overcast
8:11 AM 33.8 °F 27.7 °F 30.2 °F 87% 30.29 in 10.0 mi SSE 6.9 mph - N/A   Overcast
8:31 AM 33.8 °F 28.6 °F 30.2 °F 87% 30.29 in 10.0 mi SE 5.8 mph - N/A   Overcast
8:51 AM 33.8 °F 27.7 °F 30.2 °F 87% 30.29 in 10.0 mi SE 6.9 mph - N/A   Overcast
9:11 AM 33.8 °F 27.7 °F 30.2 °F 87% 30.29 in 10.0 mi SSE 6.9 mph - N/A   Overcast
9:51 AM 33.8 °F 27.0 °F 28.4 °F 81% 30.29 in 10.0 mi SSE 8.1 mph - N/A   Overcast
10:11 AM 35.6 °F 29.9 °F 30.2 °F 81% 30.29 in 10.0 mi SSE 6.9 mph - N/A   Overcast
10:31 AM 35.6 °F 28.6 °F 30.2 °F 81% 30.28 in 10.0 mi SSE 9.2 mph - N/A   Overcast
10:51 AM 35.6 °F 28.6 °F 28.4 °F 75% 30.28 in 10.0 mi SSE 9.2 mph - N/A   Overcast
11:11 AM 39.2 °F 33.0 °F 30.2 °F 70% 30.28 in 10.0 mi South 9.2 mph - N/A   Overcast
11:30 AM 39.2 °F 32.5 °F 30.2 °F 70% 30.27 in 10.0 mi SSE 10.4 mph - N/A   Overcast
12:10 PM 41.0 °F 33.9 °F 30.2 °F 65% 30.26 in 10.0 mi SSE 12.7 mph - N/A   Overcast
12:31 PM 42.8 °F 37.0 °F 30.2 °F 61% 30.26 in 10.0 mi SSE 10.4 mph - N/A   Mostly Cloudy
12:51 PM 42.8 °F 36.2 °F 30.2 °F 61% 30.25 in 10.0 mi South 12.7 mph - N/A   Overcast
1:11 PM 42.8 °F 37.0 °F 30.2 °F 61% 30.24 in 10.0 mi South 10.4 mph - N/A   Overcast
1:31 PM 44.6 °F 39.2 °F 32.0 °F 61% 30.24 in 10.0 mi South 10.4 mph 16.1 mph N/A   Mostly Cloudy
1:51 PM 44.6 °F 39.2 °F 32.0 °F 61% 30.24 in 10.0 mi South 10.4 mph - N/A   Mostly Cloudy
2:10 PM 44.6 °F 38.8 °F 32.0 °F 61% 30.24 in 10.0 mi South 11.5 mph - N/A   Mostly Cloudy
2:31 PM 46.4 °F 41.5 °F 32.0 °F 57% 30.23 in 10.0 mi South 10.4 mph - N/A   Scattered Clouds
2:50 PM 46.4 °F 41.1 °F 32.0 °F 57% 30.22 in 10.0 mi SSE 11.5 mph - N/A   Scattered Clouds
3:11 PM 46.4 °F 40.7 °F 32.0 °F 57% 30.22 in 10.0 mi South 12.7 mph - N/A   Mostly Cloudy
3:30 PM 46.4 °F 41.1 °F 32.0 °F 57% 30.21 in 10.0 mi SSE 11.5 mph - N/A   Mostly Cloudy
3:51 PM 46.4 °F 40.7 °F 32.0 °F 57% 30.21 in 10.0 mi SSE 12.7 mph 17.3 mph N/A   Mostly Cloudy
4:11 PM 46.4 °F 40.7 °F 32.0 °F 57% 30.21 in 10.0 mi SE 12.7 mph 17.3 mph N/A   Overcast
4:31 PM 46.4 °F 41.5 °F 32.0 °F 57% 30.20 in 10.0 mi SSE 10.4 mph 19.6 mph N/A   Overcast
4:51 PM 46.4 °F 40.4 °F 32.0 °F 57% 30.21 in 10.0 mi SSE 13.8 mph 17.3 mph N/A   Mostly Cloudy
5:11 PM 46.4 °F 41.1 °F 32.0 °F 57% 30.20 in 10.0 mi SE 11.5 mph - N/A   Overcast
5:31 PM 44.6 °F 39.7 °F 32.0 °F 61% 30.21 in 10.0 mi SE 9.2 mph - N/A   Mostly Cloudy
5:51 PM 42.8 °F 37.5 °F 32.0 °F 66% 30.21 in 10.0 mi SE 9.2 mph - N/A   Overcast
6:10 PM 42.8 °F 38.0 °F 32.0 °F 66% 30.21 in 10.0 mi SE 8.1 mph - N/A   Overcast
6:31 PM 42.8 °F 37.5 °F 32.0 °F 66% 30.21 in 10.0 mi SE 9.2 mph - N/A   Overcast
6:50 PM 42.8 °F 38.0 °F 32.0 °F 66% 30.22 in 10.0 mi SE 8.1 mph - N/A   Mostly Cloudy
7:11 PM 41.0 °F 35.8 °F 32.0 °F 70% 30.22 in 10.0 mi SE 8.1 mph - N/A   Mostly Cloudy
7:30 PM 41.0 °F 35.2 °F 30.2 °F 65% 30.22 in 10.0 mi SE 9.2 mph - N/A   Scattered Clouds
7:51 PM 39.2 °F 32.5 °F 30.2 °F 70% 30.22 in 10.0 mi ESE 10.4 mph - N/A   Clear
8:31 PM 39.2 °F 33.6 °F 32.0 °F 75% 30.22 in 10.0 mi SE 8.1 mph - N/A   Clear
8:51 PM 39.2 °F 33.0 °F 30.2 °F 70% 30.22 in 10.0 mi SE 9.2 mph - N/A   Clear
9:11 PM 37.4 °F 30.8 °F 32.0 °F 81% 30.23 in 10.0 mi SE 9.2 mph - N/A   Scattered Clouds
9:31 PM 37.4 °F 30.8 °F 30.2 °F 75% 30.23 in 10.0 mi SE 9.2 mph - N/A   Scattered Clouds
9:51 PM 35.6 °F 29.2 °F 30.2 °F 81% 30.23 in 10.0 mi SE 8.1 mph - N/A   Clear
10:10 PM 35.6 °F 28.6 °F 30.2 °F 81% 30.23 in 10.0 mi SE 9.2 mph - N/A   Clear
10:30 PM 35.6 °F 29.2 °F 30.2 °F 81% 30.23 in 10.0 mi SE 8.1 mph - N/A   Clear
10:51 PM 35.6 °F 29.9 °F 30.2 °F 81% 30.24 in 10.0 mi SE 6.9 mph - N/A   Clear
11:11 PM 35.6 °F 29.9 °F 28.4 °F 75% 30.24 in 10.0 mi SE 6.9 mph - N/A   Clear
11:51 PM 33.8 °F 27.0 °F 28.4 °F 81% 30.24 in 10.0 mi SE 8.1 mph - N/A   Clear